Change the Weather History Date:

Monday, October 8, 2012

  Actual Average (KBRL) Record (KBRL)
Temperature  
Mean Temperature 47 °F 58 °F  
Max Temperature 62 °F 69 °F 89 °F (1916)
Min Temperature 32 °F 47 °F 27 °F (1952)
Degree Days  
Heating Degree Days 18 8  
Month to date heating degree days 55  
Since 1 July heating degree days 126  
Cooling Degree Days 0 1  
Month to date cooling degree days 11  
Year to date cooling degree days 1193  
Moisture  
Dew Point 31 °F    
Average Humidity 56    
Maximum Humidity 84    
Minimum Humidity 29    
Precipitation  
Precipitation 0.00 in 0.11 in 0.82 in (2004)
Month to date precipitation 0.87  
Year to date precipitation 31.64  
Sea Level Pressure  
Sea Level Pressure 30.10 in    
Wind  
Wind Speed 10 mph (SSW)    
Max Wind Speed 23 mph    
Max Gust Speed 31 mph    
Visibility 10 miles    
Events      
T = Trace of Precipitation, MM = Missing Value Source: NWS Daily Summary

Daily Weather History Graph

Daily Weather History Graph

Search for Another Location

Airport or City:

Trip Planner

Search our weather history database for the weather conditions in past years. The results will help you decide how hot, cold, wet, or windy it might be!

Date:

Astronomy

Oct. 08, 2012 Rise Set
Actual Time 7:06 AM CDT 6:32 PM CDT
Civil Twilight 6:39 AM CDT 6:59 PM CDT
Nautical Twilight 6:07 AM CDT 7:31 PM CDT
Astronomical Twilight 5:36 AM CDT 8:03 PM CDT
Moon No Moon Rise 2:23 PM CDT (10/8)
Length of Visible Light 12h 20m
Length of Day
11h 25m
Last Quarter, 46% of the Moon is Illuminated
Oct 8
Last Quarter
Oct 15
New
Oct 21
First Quarter
Oct 29
Full
Nov 6
Last Quarter

Hourly Weather History & Observations

Time (CDT) Temp. Windchill Dew Point Humidity Pressure Visibility Wind Dir Wind Speed Gust Speed Precip Events Conditions
12:15 AM 33.1 °F 26.1 °F 27.1 °F 79% 30.17 in 10.0 mi South 8.1 mph - N/A   Clear
12:35 AM 36.9 °F 30.1 °F 28.8 °F 72% 30.17 in 10.0 mi SSW 9.2 mph - N/A   Clear
12:55 AM 38.7 °F 32.4 °F 29.1 °F 69% 30.17 in 10.0 mi South 9.2 mph - N/A   Clear
1:15 AM 37.6 °F 31.0 °F 28.9 °F 71% 30.17 in 10.0 mi South 9.2 mph - N/A   Clear
1:35 AM 37.2 °F 31.2 °F 29.1 °F 73% 30.17 in 10.0 mi South 8.1 mph - N/A   Clear
1:55 AM 35.6 °F 29.9 °F 28.6 °F 76% 30.18 in 10.0 mi South 6.9 mph - N/A   Clear
2:15 AM 34.3 °F 28.4 °F 28.2 °F 78% 30.18 in 10.0 mi SSW 6.9 mph - N/A   Clear
2:35 AM 34.2 °F 28.2 °F 28.4 °F 79% 30.17 in 10.0 mi South 6.9 mph - N/A   Clear
2:55 AM 33.8 °F 27.7 °F 28.2 °F 80% 30.17 in 10.0 mi South 6.9 mph - N/A   Clear
3:15 AM 32.9 °F 26.7 °F 28.2 °F 83% 30.16 in 10.0 mi South 6.9 mph - N/A   Clear
3:35 AM 34.2 °F 28.2 °F 29.1 °F 82% 30.16 in 10.0 mi South 6.9 mph - N/A   Clear
3:55 AM 34.2 °F 27.5 °F 28.9 °F 81% 30.16 in 10.0 mi South 8.1 mph - N/A   Clear
4:15 AM 34.2 °F 28.2 °F 29.1 °F 82% 30.15 in 10.0 mi South 6.9 mph - N/A   Clear
4:35 AM 34.3 °F 28.4 °F 29.3 °F 82% 30.15 in 10.0 mi South 6.9 mph - N/A   Clear
4:55 AM 34.9 °F 28.3 °F 29.7 °F 81% 30.15 in 10.0 mi South 8.1 mph - N/A   Clear
5:15 AM 34.7 °F 29.6 °F 29.5 °F 81% 30.16 in 10.0 mi SSW 5.8 mph - N/A   Clear
5:35 AM 34.0 °F 28.0 °F 29.1 °F 82% 30.16 in 10.0 mi SSW 6.9 mph - N/A   Clear
5:55 AM 33.8 °F 27.7 °F 28.4 °F 81% 30.16 in 10.0 mi SSW 6.9 mph - N/A   Clear
6:15 AM 34.0 °F 28.0 °F 29.5 °F 84% 30.16 in 10.0 mi South 6.9 mph - N/A   Clear
6:35 AM 35.1 °F 28.6 °F 30.0 °F 82% 30.16 in 10.0 mi South 8.1 mph - N/A   Clear
6:55 AM 36.9 °F 29.6 °F 30.6 °F 78% 30.16 in 10.0 mi South 10.4 mph - N/A   Clear
7:15 AM 37.4 °F 30.3 °F 30.4 °F 76% 30.16 in 10.0 mi South 10.4 mph - N/A   Clear
7:35 AM 37.4 °F 30.3 °F 30.7 °F 77% 30.16 in 10.0 mi South 10.4 mph - N/A   Clear
7:55 AM 38.3 °F 31.4 °F 31.3 °F 76% 30.16 in 10.0 mi South 10.4 mph - N/A   Clear
8:15 AM 40.1 °F 33.6 °F 32.0 °F 73% 30.16 in 10.0 mi South 10.4 mph - N/A   Clear
8:35 AM 42.1 °F 36.1 °F 32.2 °F 68% 30.16 in 10.0 mi South 10.4 mph - N/A   Clear
8:55 AM 44.4 °F 39.0 °F 32.9 °F 64% 30.16 in 10.0 mi SSW 10.4 mph - N/A   Clear
9:15 AM 46.6 °F - 33.4 °F 60% 30.16 in 10.0 mi SSW 10.4 mph - N/A   Clear
9:35 AM 49.1 °F - 32.7 °F 53% 30.16 in 10.0 mi SW 12.7 mph - N/A   Clear
9:55 AM 51.3 °F - 32.5 °F 49% 30.16 in 10.0 mi SW 12.7 mph - N/A   Clear
10:15 AM 52.7 °F - 32.7 °F 47% 30.16 in 10.0 mi SW 12.7 mph - N/A   Clear
10:35 AM 54.0 °F - 32.2 °F 44% 30.15 in 10.0 mi SW 13.8 mph - N/A   Clear
10:55 AM 56.1 °F - 32.0 °F 40% 30.15 in 10.0 mi SSW 11.5 mph 20.7 mph N/A   Clear
11:15 AM 57.0 °F - 30.7 °F 37% 30.14 in 7.0 mi SW 12.7 mph 19.6 mph N/A   Clear
11:35 AM 58.5 °F - 30.0 °F 34% 30.13 in 10.0 mi SSW 15.0 mph 24.2 mph N/A   Clear
11:55 AM 59.2 °F - 29.5 °F 32% 30.13 in 10.0 mi SSW 20.7 mph 25.3 mph N/A   Clear
12:15 PM 59.9 °F - 28.9 °F 31% 30.12 in 10.0 mi SW 17.3 mph 23.0 mph N/A   Clear
12:35 PM 60.1 °F - 28.0 °F 30% 30.11 in 10.0 mi SSW 23.0 mph 28.8 mph N/A   Clear
12:55 PM 60.8 °F - 28.6 °F 29% 30.10 in 10.0 mi SW 23.0 mph 31.1 mph N/A   Clear
1:15 PM 61.0 °F - 29.5 °F 30% 30.09 in 10.0 mi SW 15.0 mph 29.9 mph N/A   Clear
1:35 PM 61.2 °F - 30.2 °F 31% 30.08 in 10.0 mi SSW 15.0 mph 26.5 mph N/A   Clear
1:55 PM 61.3 °F - 30.2 °F 31% 30.08 in 10.0 mi SW 17.3 mph 20.7 mph N/A   Clear
2:15 PM 61.9 °F - 29.3 °F 29% 30.06 in 10.0 mi SSW 20.7 mph 28.8 mph N/A   Clear
2:35 PM 62.2 °F - 29.8 °F 29% 30.05 in 10.0 mi SSW 19.6 mph 26.5 mph N/A   Clear
2:55 PM 62.4 °F - 29.3 °F 29% 30.05 in 10.0 mi SSW 17.3 mph 24.2 mph N/A   Clear
3:15 PM 62.1 °F - 29.3 °F 29% 30.04 in 10.0 mi SSW 19.6 mph 24.2 mph N/A   Clear
3:35 PM 62.6 °F - 29.7 °F 29% 30.03 in 10.0 mi SSW 16.1 mph 23.0 mph N/A   Clear
3:55 PM 62.2 °F - 29.1 °F 29% 30.03 in 10.0 mi SSW 19.6 mph 24.2 mph N/A   Clear
4:15 PM 62.8 °F - 29.8 °F 29% 30.02 in 10.0 mi SSW 18.4 mph 23.0 mph N/A   Clear
4:35 PM 62.1 °F - 29.7 °F 29% 30.01 in 10.0 mi SW 18.4 mph 24.2 mph N/A   Clear
4:55 PM 61.5 °F - 29.7 °F 30% 30.01 in 10.0 mi South 17.3 mph 20.7 mph N/A   Clear
5:15 PM 60.8 °F - 29.7 °F 31% 30.01 in 10.0 mi South 15.0 mph - N/A   Clear
5:35 PM 60.8 °F - 30.2 °F 31% 30.01 in 10.0 mi SSW 18.4 mph - N/A   Clear
5:55 PM 59.5 °F - 30.0 °F 33% 30.01 in 10.0 mi SSW 17.3 mph - N/A   Clear
6:15 PM 58.1 °F - 31.3 °F 36% 30.01 in 10.0 mi SSW 10.4 mph - N/A   Clear
6:35 PM 56.8 °F - 31.6 °F 38% 30.01 in 10.0 mi South 10.4 mph - N/A   Clear
6:55 PM 55.4 °F - 32.0 °F 41% 30.01 in 10.0 mi SSW 10.4 mph - N/A   Clear
7:15 PM 53.6 °F - 32.2 °F 44% 30.02 in 10.0 mi South 8.1 mph - N/A   Clear
7:35 PM 51.8 °F - 33.1 °F 49% 30.02 in 10.0 mi South 8.1 mph - N/A   Clear
7:55 PM 50.0 °F - 33.8 °F 54% 30.03 in 10.0 mi South 8.1 mph - N/A   Clear
8:15 PM 50.2 °F - 33.3 °F 52% 30.03 in 10.0 mi South 8.1 mph - N/A   Clear
8:35 PM 48.6 °F - 33.6 °F 56% 30.03 in 10.0 mi South 9.2 mph - N/A   Clear
8:55 PM 48.2 °F - 33.8 °F 58% 30.03 in 10.0 mi South 8.1 mph - N/A   Clear
9:15 PM 47.3 °F - 34.0 °F 60% 30.03 in 10.0 mi South 8.1 mph - N/A   Clear
9:35 PM 48.4 °F - 34.2 °F 58% 30.03 in 10.0 mi South 9.2 mph - N/A   Clear
9:55 PM 48.2 °F - 34.7 °F 60% 30.04 in 10.0 mi South 10.4 mph - N/A   Clear
10:15 PM 46.9 °F - 34.7 °F 62% 30.03 in 10.0 mi South 8.1 mph - N/A   Clear
10:35 PM 47.3 °F - 35.1 °F 62% 30.03 in 10.0 mi South 8.1 mph - N/A   Scattered Clouds
10:55 PM 47.3 °F - 34.9 °F 62% 30.04 in 10.0 mi South 9.2 mph - N/A   Scattered Clouds
11:15 PM 48.0 °F - 34.9 °F 60% 30.03 in 10.0 mi South 9.2 mph - N/A   Clear
11:35 PM 47.7 °F - 34.9 °F 61% 30.02 in 10.0 mi South 9.2 mph - N/A   Clear
11:55 PM 48.2 °F - 35.6 °F 62% 30.02 in 10.0 mi South 8.1 mph - N/A   Clear